Probability
0 0 0 0 0 0 0 0 0 0 0 0 0 0 0 0 0 0 0 0 0 0 0 0 0 0 0 0 0 0 0 0 0 0 0 0 0 0 0 0 0 0 0
0 0 0 0 0 0 0 0 0 0 0 0 0 0 0 0 0 0 0 0 0 0 0 0 0 0 0 0 0 0 0 0 0 0 0 0 0 0 0 0 0 0 0
0 0 0 0 0 0 0 0 0 0 0 0 0 0 0 0 0 0 0 0 0 0 0 0 0 0 0 0 0 0 0 0 0 0 0 0 0 0 0 0 0 0 0
0 0 0 0 0 0 0 0 0 0 0 0 0 0 0 0 0 0 0 0 0 0 0 0 0 0 0 0 0 0 0 0 0 0 0 0 0 0 0 0 0 0 0
0 0 0 0 0 0 0 0 0 0 0 0 0 0 0 0 0 0 0 0 0 0 0 0 0 0 0 0 0 0 0 0 0 0 0 0 0 0 0 0 0 0 0
0 0 0 0 0 0 0 0 0 0 0 0 0 0 0 0 0 0 0 0 0 0 0 0 0 0 0 0 0 0 0 0 0 0 0 0 0 0 0 0 0 0 0
0 0 0 0 0 0 0 0 0 0 0 0 0 0 0 0 0 0 0 0 0 0 0 0 0 0 0 0 0 0 0 0 0 0 0 0 0 0 0 0 0 0 0
1 0 0 0 0 0 0 0 0 0 0 0 0 0 0 0 0 0 0 0 0 0 0 0 0 0 0 0 0 0 0 0 0 0 0 0 0 0 0 0 0 0 0
2 1 0 0 0 0 0 0 0 0 0 0 0 0 0 0 0 0 0 0 0 0 0 0 0 0 0 0 0 0 0 0 0 0 0 0 0 0 0 0 0 0 0
4 2 0 0 0 0 0 0 0 0 0 0 0 0 0 0 0 0 0 0 0 0 0 0 0 0 0 0 0 0 0 0 0 0 0 0 0 0 0 0 0 0 0
16 10 4 2 0 0 0 0 0 0 0 0 0 0 0 0 0 0 0 0 0 0 0 0 0 0 0 0 0 0 0 0 0 0 0 0 0 0 0 0 0 0 0
40 29 17 9 4 2 0 0 0 0 0 0 0 0 0 0 0 0 0 0 0 0 0 0 0 0 0 0 0 0 0 0 0 0 0 0 0 0 0 0 0 0 0
60 52 38 23 12 6 2 1 0 0 0 0 0 0 0 0 0 0 0 0 0 0 0 0 0 0 0 0 0 0 0 0 0 0 0 0 0 0 0 0 0 0 0
62 62 55 38 21 11 6 3 1 0 0 0 0 0 0 0 0 0 0 0 0 0 0 0 0 0 0 0 0 0 0 0 0 0 0 0 0 0 0 0 0 0 0
45 57 66 56 39 26 16 7 2 0 0 0 0 0 0 0 0 0 0 0 0 0 0 0 0 0 0 0 0 0 0 0 0 0 0 0 0 0 0 0 0 0 0
22 43 68 76 68 55 37 18 5 1 0 0 0 0 0 0 0 0 0 0 0 0 0 0 0 0 0 0 0 0 0 0 0 0 0 0 0 0 0 0 0 0 0
7 25 60 85 90 84 68 43 20 5 0 0 0 0 0 0 0 0 0 0 0 0 0 0 0 0 0 0 0 0 0 0 0 0 0 0 0 0 0 0 0 0 0
2 14 47 82 97 98 91 75 47 19 3 0 0 0 0 0 0 0 0 0 0 0 0 0 0 0 0 0 0 0 0 0 0 0 0 0 0 0 0 0 0 0 0
1 9 35 71 94 100 99 94 74 40 14 4 1 0 0 0 0 0 0 0 0 0 0 0 0 0 0 0 0 0 0 0 0 0 0 0 0 0 0 0 0 0 0
0 5 23 54 83 97 100 99 90 66 37 17 6 2 0 0 0 0 0 0 0 0 0 0 0 0 0 0 0 0 0 0 0 0 0 0 0 0 0 0 0 0 0
0 2 11 34 65 89 99 100 97 87 65 37 16 5 1 0 0 0 0 0 0 0 0 0 0 0 0 0 0 0 0 0 0 0 0 0 0 0 0 0 0 0 0
0 0 3 16 44 76 95 98 91 80 62 39 18 6 1 0 0 0 0 0 0 0 0 0 0 0 0 0 0 0 0 0 0 0 0 0 0 0 0 0 0 0 0
0 0 1 6 25 57 86 94 79 55 34 20 11 4 1 0 0 0 0 0 0 0 0 0 0 0 0 0 0 0 0 0 0 0 0 0 0 0 0 0 0 0 0
0 0 0 2 13 42 76 91 77 49 22 9 5 3 1 0 0 0 0 0 0 0 0 0 0 0 0 0 0 0 0 0 0 0 0 0 0 0 0 0 0 0 0
0 0 0 0 8 31 66 86 80 53 23 7 4 2 1 0 0 0 0 0 0 0 0 0 0 0 0 0 0 0 0 0 0 0 0 0 0 0 0 0 0 0 0
0 0 0 0 6 27 59 82 80 51 18 4 2 1 0 0 0 0 0 0 0 0 0 0 0 0 0 0 0 0 0 0 0 0 0 0 0 0 0 0 0 0 0
Wind_Speed
7 9 17 17 17 16 16 15 15 14 15 16 18 17 17 16 15 13 12 10 9 9 10 12 13 13 13 13 11 10 9 9 9 8 7 7 8 8 8 8 7 3 5
11 11 17 17 17 17 16 15 15 14 14 15 17 17 17 16 14 13 12 11 10 9 10 11 12 12 12 11 9 8 8 8 7 5 3 3 4 6 7 6 5 3 5
15 12 14 17 18 17 16 15 15 15 14 15 16 17 16 16 14 13 12 11 10 10 10 10 10 10 10 9 8 7 7 6 4 2 3 1 0 4 5 4 4 3 3
16 12 12 17 18 17 16 15 15 15 15 16 16 16 16 15 15 13 12 11 10 10 10 10 9 9 8 7 6 5 5 4 4 3 2 3 2 3 3 3 2 1 1
13 12 12 17 17 17 16 15 16 16 16 16 16 15 15 15 14 13 12 11 10 10 9 9 8 8 7 6 5 4 4 6 7 4 3 4 3 2 3 2 1 1 2
11 10 12 17 17 16 15 15 16 16 16 15 15 15 15 14 14 13 12 11 10 9 9 9 8 7 6 5 4 4 5 7 6 3 3 3 2 2 2 2 0 1 2
12 10 12 17 17 16 15 15 16 16 15 15 14 14 14 13 13 13 12 11 10 8 8 9 8 7 6 5 4 5 7 8 5 4 3 1 0 2 2 3 4 4 3
15 12 12 17 16 15 15 15 15 16 16 15 14 13 13 13 13 13 12 11 9 8 8 8 8 7 5 4 4 6 7 7 5 5 3 2 2 3 4 4 5 5 6
13 13 10 10 11 14 13 13 13 14 15 14 13 11 9 10 12 14 13 11 9 8 7 8 7 7 5 4 4 6 8 8 5 3 3 1 2 3 4 5 6 8 10
10 12 11 9 8 8 9 13 13 12 12 12 11 9 8 8 11 14 12 10 9 8 7 7 6 6 4 3 5 7 9 8 5 4 1 1 2 4 6 9 11 14 15
10 10 10 10 9 8 7 10 10 11 11 11 9 10 7 5 6 8 9 10 9 8 7 6 6 5 3 4 6 8 8 3 4 2 1 2 7 10 13 13 14 14 14
14 12 10 11 11 9 8 6 5 6 6 6 5 6 4 4 4 6 9 10 9 8 6 5 5 3 2 3 5 7 3 4 3 2 2 9 12 14 15 14 14 13 12
15 14 13 13 12 11 7 6 4 4 4 5 7 7 4 4 3 3 3 4 4 5 2 2 3 2 2 2 3 3 4 3 2 2 4 11 13 13 13 13 12 11 10
14 16 15 14 13 12 9 8 7 5 5 5 6 7 5 3 4 4 3 3 3 2 2 2 2 3 3 3 4 4 4 3 2 2 4 12 13 12 11 11 10 10 9
13 15 16 15 15 13 11 9 9 8 7 7 6 7 7 6 6 5 4 3 3 2 3 3 3 4 3 3 3 4 4 4 3 3 4 11 12 11 10 10 9 9 9
11 14 15 17 16 14 12 10 9 9 8 8 7 7 9 7 7 6 5 4 3 3 3 4 4 4 3 3 4 4 4 4 4 4 3 6 11 10 9 9 9 9 9
10 12 15 18 17 17 15 13 10 9 9 8 8 9 10 8 8 7 6 5 4 4 5 4 4 3 3 3 3 3 3 4 4 4 4 3 4 7 8 8 9 9 10
8 10 14 15 16 17 15 13 9 10 10 8 8 9 11 10 10 8 7 5 5 4 4 4 3 3 3 3 2 2 2 3 4 4 3 3 2 2 4 7 8 9 10
9 10 12 13 15 16 15 12 10 10 10 9 8 8 9 10 11 8 7 5 6 5 4 4 3 3 2 2 1 1 1 2 3 4 4 3 3 3 2 4 6 6 8
9 9 12 14 15 15 12 8 7 8 8 8 9 8 10 10 11 9 7 7 7 6 4 4 4 3 2 1 2 3 2 1 2 3 3 3 2 3 3 2 2 2 5
7 7 10 12 14 12 9 10 10 11 9 9 8 10 11 11 11 10 9 8 7 6 6 6 4 3 2 1 3 2 3 2 1 1 1 1 2 2 2 2 0 1 2
8 7 8 11 12 13 13 12 10 10 7 7 7 9 12 13 13 11 12 9 7 6 6 5 4 3 2 1 3 3 1 2 2 2 1 1 2 2 2 1 2 2 2
8 8 8 10 12 13 12 7 5 4 3 3 6 8 10 13 13 13 13 11 9 8 7 6 5 6 4 1 1 3 4 4 2 2 2 2 2 2 2 2 3 3 4
9 8 8 8 10 11 12 11 13 11 9 9 8 7 9 11 13 13 13 13 11 7 7 6 5 4 5 3 1 2 2 3 3 1 2 2 1 1 2 3 4 4 5
7 6 6 7 8 10 12 14 15 10 7 5 6 8 8 8 10 12 13 12 12 9 8 7 5 5 4 4 3 2 2 2 2 2 2 4 3 2 2 3 3 3 4
4 4 4 5 6 8 12 14 16 14 11 11 10 10 8 6 7 10 11 12 11 10 9 8 6 6 4 4 3 3 3 3 2 2 2 3 3 3 3 3 2 2 3
Wind_Direction
160 165 155 148 140 133 129 126 125 127 131 133 130 126 122 118 114 109 104 100 99 99 93 89 98 110 107 103 98 93 88 84 81 75 66 62 72 80 84 80 73 77 92
150 159 156 150 143 137 132 129 128 129 132 135 135 132 128 122 117 110 104 101 103 106 103 96 92 98 98 97 95 92 91 91 89 92 86 42 42 83 93 92 87 92 90
149 155 156 153 146 141 137 134 133 134 136 138 137 134 130 125 118 112 107 107 107 107 105 101 97 96 97 97 94 91 89 86 82 91 154 174 321 96 98 97 91 101 106
151 152 156 155 149 144 141 138 136 135 136 138 137 136 133 129 124 119 116 115 113 109 107 104 101 100 101 99 94 86 70 45 27 19 135 180 226 112 106 104 87 70 70
150 149 159 157 153 148 144 142 140 138 138 138 138 139 139 136 132 128 125 123 121 119 115 112 109 108 107 105 99 80 43 18 10 18 129 162 213 118 102 110 153 215 248
147 147 160 159 156 152 149 148 145 142 141 141 142 143 145 145 142 137 134 135 135 134 129 124 122 120 117 111 99 70 32 19 21 30 121 155 213 100 90 82 65 244 250
148 149 161 162 159 156 155 155 152 148 147 147 148 151 153 153 150 146 145 146 147 144 137 134 130 127 121 106 78 42 23 15 40 70 105 136 236 79 68 50 37 26 13
153 155 164 167 163 162 162 161 160 156 154 154 155 157 160 162 161 157 156 156 156 152 148 143 138 133 122 99 57 32 19 24 56 89 86 48 12 50 56 45 31 30 30
156 157 164 167 167 167 167 167 167 163 161 161 160 159 165 171 169 166 163 163 161 157 153 146 141 136 127 105 66 44 38 60 85 91 73 25 10 45 57 56 56 59 60
160 164 166 165 167 168 169 172 172 170 166 165 160 155 163 172 169 165 166 165 163 160 154 148 142 135 122 89 58 61 69 75 80 67 24 310 47 78 84 81 77 73 67
171 173 171 168 168 165 169 177 174 172 172 169 162 163 158 153 153 161 163 162 164 164 161 154 144 135 109 41 39 67 73 85 91 64 334 69 87 89 86 81 75 69 65
181 181 178 176 173 169 176 173 172 173 172 166 162 166 156 148 153 158 165 165 168 170 168 160 145 123 82 39 41 61 72 99 81 50 62 89 91 88 82 75 69 65 60
182 183 184 183 178 175 176 170 176 173 170 170 172 172 163 162 160 152 158 164 164 160 143 111 77 68 84 85 69 65 86 97 75 45 66 87 90 86 81 74 68 61 55
182 189 186 185 182 182 179 178 180 180 180 183 186 177 164 169 171 166 167 164 162 150 139 114 103 95 91 86 86 86 95 106 86 62 73 84 86 84 80 74 66 58 50
190 192 189 186 186 184 182 183 183 187 188 189 189 183 175 174 176 174 172 169 169 150 138 125 114 107 92 74 71 88 106 123 103 78 77 89 87 84 78 70 61 51 43
204 197 191 190 190 185 186 187 185 188 188 189 194 186 182 179 175 175 171 167 161 149 137 125 120 108 82 71 67 78 103 128 118 102 85 90 94 90 81 67 56 44 34
209 200 195 193 191 189 190 189 187 187 186 188 195 193 186 179 172 169 164 159 151 138 125 109 100 88 77 64 58 62 100 131 138 124 112 102 100 98 91 71 56 45 33
206 200 200 197 193 193 192 190 189 186 186 188 189 191 185 175 165 158 156 152 145 132 120 114 106 86 67 62 50 30 81 128 144 151 143 141 129 112 95 86 65 49 32
211 201 200 201 195 196 195 190 189 184 185 186 186 184 177 168 160 155 153 147 140 125 121 120 96 106 83 61 38 58 71 131 148 159 169 177 167 144 121 95 78 57 34
229 207 202 202 199 197 194 188 185 184 185 184 186 179 169 165 159 151 148 146 138 127 124 119 112 90 91 86 59 55 35 67 127 157 180 181 173 155 136 115 81 34 26
244 221 208 204 203 195 188 188 188 192 190 187 184 174 168 162 160 155 151 149 146 143 147 138 118 104 73 75 89 48 12 24 65 110 164 150 142 136 128 130 155 338 333
237 232 216 210 206 200 196 193 193 190 188 185 171 167 167 164 164 161 156 158 153 141 144 147 135 123 93 65 124 115 58 337 336 11 21 129 104 88 76 49 346 321 297
242 238 229 215 210 206 199 184 149 111 92 134 167 172 173 169 169 165 162 157 155 154 162 162 151 142 142 86 87 140 152 205 274 326 8 51 80 82 53 16 4 340 309
246 245 240 227 214 205 194 184 175 177 179 185 179 171 168 170 169 165 162 159 158 156 159 163 154 147 139 143 109 74 123 145 155 292 323 343 6 69 24 356 345 335 325
250 249 246 236 222 206 197 192 189 186 174 152 149 154 161 165 167 165 163 159 159 157 158 152 145 142 137 147 151 141 116 86 111 150 271 314 329 321 336 327 332 344 344
255 256 249 236 227 207 200 197 194 182 159 152 159 164 165 161 162 166 165 161 159 156 155 150 142 142 137 134 135 138 146 149 161 158 214 267 285 293 303 300 324 353 9